DW7516 Weather Reports


Display with metric or nautical units.
time (UTC)temp
F
wind
direction
speed
MPH
gust
MPH
rain 1hr
in
rain 24hr
in
rain mn
in
humidity
%
barometer
mb
20191210013609 47 22 3.0 3.0 0.00 0.74 0.00 81 1009.8
20191210013109 47 29 3.0 5.0 0.00 0.74 0.00 81 1010.1
20191210011610 47 13 3.0 5.0 0.00 0.74 0.00 80 1010.1
20191210011111 47 22 3.0 5.0 0.00 0.74 0.00 80 1010.0
20191210010611 47 26 3.0 5.0 0.00 0.74 0.00 79 1010.1
20191210010115 47 7 1.0 2.0 0.00 0.74 0.00 79 1010.3
20191210004613 46 44 2.0 3.0 0.00 0.74 0.00 79 1010.1
20191210004108 47 349 1.0 3.0 0.00 0.74 0.00 79 1010.0
20191210003607 46 355 2.0 2.0 0.00 0.74 0.00 80 1009.9
20191210003109 46 0 2.0 3.0 0.00 0.74 0.00 80 1010.2
20191210001612 46 338 1.0 2.0 0.00 0.74 0.00 80 1009.6
20191210001110 46 330 1.0 1.0 0.00 0.74 0.00 80 1010.2
20191210000608 46 304 1.0 2.0 0.00 0.74 0.00 80 1010.1
20191210000108 47 343 1.0 3.0 0.00 0.74 0.00 79 1009.3
20191209234614 47 48 2.0 5.0 0.00 0.74 0.00 80 1009.8
20191209234113 47 39 3.0 5.0 0.00 0.74 0.00 81 1009.9
20191209233613 47 34 5.0 7.0 0.00 0.74 0.00 81 1009.8
20191209233113 46 35 6.0 8.0 0.00 0.74 0.00 82 1009.7
20191209231609 46 22 6.0 8.0 0.00 0.74 0.00 82 1009.6
20191209231110 46 25 6.0 8.0 0.00 0.74 0.00 82 1010.0
20191209230613 46 28 6.0 7.0 0.00 0.74 0.00 83 1009.7
20191209230111 46 23 5.0 7.0 0.00 0.74 0.00 82 1009.6
20191209224615 47 22 3.0 5.0 0.00 0.74 0.00 83 1010.0
20191209224107 46 29 3.0 5.0 0.00 0.74 0.00 83 1010.0
20191209223609 46 36 3.0 5.0 0.00 0.74 0.00 83 1009.6
20191209223109 47 25 3.0 5.0 0.00 0.74 0.00 83 1009.2
20191209221609 47 34 3.0 5.0 0.00 0.74 0.00 84 1009.1
20191209221116 47 43 3.0 5.0 0.00 0.74 0.00 84 1009.9
20191209220609 47 21 2.0 3.0 0.00 0.74 0.00 85 1009.9
20191209220122 46 42 2.0 3.0 0.00 0.74 0.00 85 1009.4
20191209214619 46 41 2.0 3.0 0.00 0.74 0.74 86 1010.0
20191209214108 46 13 3.0 3.0 0.00 0.74 0.74 85 1009.4
20191209213611 46 14 2.0 3.0 0.00 0.74 0.74 85 1009.5
20191209213108 47 1 2.0 3.0 0.00 0.74 0.74 85 1009.5
20191209211611 47 36 3.0 3.0 0.00 0.74 0.74 86 1009.4
20191209211109 47 35 3.0 5.0 0.00 0.74 0.74 86 1009.5
20191209210615 47 20 3.0 5.0 0.00 0.74 0.74 87 1009.5
20191209210107 47 22 5.0 5.0 0.00 0.74 0.74 87 1010.1
20191209204607 47 39 3.0 5.0 0.00 0.74 0.74 87 1009.5
20191209204109 47 37 3.0 5.0 0.00 0.74 0.74 86 1009.5
20191209203115 48 42 1.0 3.0 0.00 0.74 0.74 87 1009.5
20191209201618 48 64 2.0 2.0 0.00 0.74 0.74 86 1009.5
20191209201109 48 77 1.0 2.0 0.00 0.74 0.74 86 1009.6
20191209200612 48 150 1.0 2.0 0.00 0.74 0.74 87 1009.6
20191209194114 48 217 1.0 2.0 0.00 0.74 0.74 86 1009.9
20191209193614 48 109 1.0 2.0 0.00 0.74 0.74 86 1009.9
20191209193115 48 64 1.0 2.0 0.00 0.74 0.74 86 1009.6
20191209191613 48 43 2.0 2.0 0.00 0.74 0.74 86 1009.6
20191209191112 48 91 1.0 2.0 0.00 0.74 0.74 86 1009.6
20191209190617 48 63 1.0 2.0 0.00 0.74 0.74 85 1009.6
20191209190116 48 39 1.0 2.0 0.00 0.74 0.74 85 1009.6
20191209184614 48 138 0.0 1.0 0.00 0.75 0.74 85 1009.5
20191209184117 48 162 1.0 2.0 0.00 0.76 0.74 85 1009.6
20191209183612 48 163 2.0 3.0 0.00 0.77 0.74 85 1009.6
20191209183115 48 92 1.0 3.0 0.00 0.78 0.74 85 1009.5
20191209181612 48 91 0.0 1.0 0.00 0.86 0.74 84 1009.5
20191209181112 48 221 1.0 2.0 0.00 0.88 0.74 85 1009.5
20191209180614 48 242 1.0 2.0 0.00 0.90 0.74 84 1009.4
20191209180117 48 8 0.0 5.0 0.00 0.90 0.74 85 1009.4
20191209174619 48 85 2.0 3.0 0.00 0.93 0.74 84 1009.3
20191209174119 48 18 2.0 3.0 0.00 0.93 0.74 84 1009.5
20191209173611 48 89 1.0 2.0 0.00 0.93 0.74 84 1009.6
20191209173118 48 57 2.0 2.0 0.00 0.93 0.74 84 1009.1
20191209171609 48 62 1.0 2.0 0.00 0.93 0.74 84 1009.0
20191209171109 48 65 1.0 2.0 0.00 0.93 0.74 85 1008.9
20191209170610 48 35 2.0 2.0 0.00 0.93 0.74 85 1008.9
20191209170112 48 22 1.0 5.0 0.00 0.93 0.74 85 1008.9
20191209164612 48 9 2.0 2.0 0.00 0.93 0.74 85 1008.8
20191209164113 48 5 2.0 3.0 0.00 0.93 0.74 85 1008.7
20191209163607 48 41 2.0 3.0 0.00 0.93 0.74 85 1008.7
20191209163114 48 40 1.0 2.0 0.00 0.93 0.74 85 1008.9
20191209161611 48 154 1.0 2.0 0.00 0.93 0.74 86 1008.4
20191209161113 48 84 1.0 2.0 0.00 0.93 0.74 86 1008.4
20191209160614 48 23 1.0 1.0 0.00 0.93 0.74 86 1008.4
20191209160108 49 53 1.0 5.0 0.00 0.93 0.74 86 1008.7
20191209154609 49 172 2.0 3.0 0.00 0.93 0.74 87 1008.1
20191209154113 48 214 5.0 7.0 0.01 0.93 0.74 88 1008.1
20191209153609 48 123 2.0 7.0 0.02 0.93 0.74 88 1008.0
20191209153112 48 123 1.0 8.0 0.03 0.93 0.74 88 1008.3
20191209151610 48 145 3.0 8.0 0.04 0.93 0.74 88 1008.1
20191209151115 48 85 2.0 7.0 0.04 0.93 0.74 88 1007.8
20191209150614 48 128 3.0 7.0 0.04 0.93 0.74 88 1007.7
20191209150113 47 98 1.0 9.0 0.04 0.93 0.74 88 1007.7
20191209144613 47 75 4.0 6.0 0.04 0.93 0.74 88 1007.3
20191209144109 47 68 2.0 3.0 0.03 0.92 0.73 88 1007.4
20191209143611 47 96 2.0 3.0 0.02 0.91 0.72 88 1007.5
20191209143113 47 71 2.0 5.0 0.01 0.90 0.71 88 1007.4
20191209141611 47 55 3.0 7.0 0.00 0.89 0.70 89 1007.4
20191209141111 47 83 6.0 8.0 0.01 0.89 0.70 89 1007.8
20191209140614 47 72 5.0 8.0 0.02 0.89 0.70 89 1007.7
20191209140114 46 117 2.0 7.0 0.02 0.89 0.70 90 1007.4
20191209134607 46 55 4.0 7.0 0.04 0.89 0.70 89 1008.3
20191209134114 46 55 5.0 7.0 0.04 0.89 0.70 90 1007.8
20191209133615 46 82 2.0 5.0 0.08 0.89 0.70 90 1007.6
20191209133112 45 63 2.0 5.0 0.11 0.89 0.70 90 1007.9
20191209131616 45 53 1.0 2.0 0.20 0.89 0.70 90 1007.6
20191209131108 45 331 3.0 8.0 0.24 0.87 0.69 90 1008.3
20191209130608 45 2 7.0 8.0 0.28 0.87 0.68 90 1008.1
20191209130106 45 11 3.0 7.0 0.28 0.87 0.68 90 1007.7
20191209124613 45 171 3.0 7.0 0.26 0.85 0.66 90 1008.1
20191209124113 45 310 4.0 7.0 0.29 0.85 0.66 90 1007.9
20191209123612 45 84 3.0 7.0 0.25 0.80 0.62 90 1008.4
20191209123114 45 96 4.0 7.0 0.24 0.78 0.59 90 1008.5
20191209121608 45 99 3.0 5.0 0.19 0.68 0.50 88 1008.3
20191209121107 45 173 5.0 7.0 0.16 0.63 0.44 89 1007.5
20191209120608 45 97 3.0 7.0 0.15 0.59 0.41 89 1007.3
20191209120110 45 92 5.0 8.0 0.17 0.59 0.41 88 1007.3
20191209114611 45 63 6.0 8.0 0.20 0.58 0.40 88 1007.0
20191209114107 45 85 3.0 7.0 0.19 0.56 0.37 88 1007.4
20191209113607 45 92 2.0 5.0 0.19 0.56 0.37 88 1007.6
20191209113107 45 91 3.0 7.0 0.17 0.57 0.35 88 1007.8
20191209111614 46 75 3.0 7.0 0.15 0.57 0.30 87 1007.9
20191209111110 46 100 7.0 8.0 0.13 0.57 0.28 86 1008.0
20191209110615 46 103 8.0 9.0 0.13 0.59 0.25 86 1008.0
20191209110108 47 90 10.0 14.0 0.12 0.65 0.23 85 1008.0
20191209104609 47 59 2.0 7.0 0.13 0.73 0.19 84 1008.0
20191209104110 47 78 8.0 12.0 0.13 0.72 0.18 84 1007.6
20191209103613 48 58 5.0 7.0 0.15 0.72 0.18 84 1007.5
20191209103114 48 71 6.0 13.0 0.15 0.71 0.17 83 1006.9
20191209101607 48 341 3.0 8.0 0.13 0.69 0.15 84 1007.1
20191209101108 48 60 5.0 8.0 0.15 0.69 0.15 83 1007.7
20191209100611 48 78 4.0 7.0 0.11 0.66 0.12 83 1007.5
20191209100109 48 63 5.0 8.0 0.10 0.66 0.11 83 1008.1
20191209094611 48 58 3.0 7.0 0.05 0.61 0.06 82 1008.3
20191209094108 49 97 7.0 9.0 0.04 0.60 0.05 82 1007.8
20191209093609 49 92 4.0 9.0 0.02 0.58 0.03 82 1008.1
20191209093111 49 89 6.0 13.0 0.01 0.57 0.02 82 1008.0
20191209091115 49 32 3.0 5.0 0.01 0.57 0.01 82 1008.4
20191209090606 49 22 3.0 5.0 0.01 0.58 0.01 81 1008.4
20191209090107 49 22 3.0 5.0 0.01 0.59 0.01 80 1008.1
20191209084608 49 73 2.0 7.0 0.01 0.63 0.01 78 1008.8
20191209084110 49 111 8.0 9.0 0.01 0.64 0.01 78 1007.9
20191209083612 50 115 4.0 7.0 0.01 0.64 0.01 76 1007.8
20191209083114 50 101 2.0 7.0 0.01 0.64 0.01 75 1008.6
20191209081610 52 124 3.0 7.0 0.00 0.64 0.00 71 1008.8
20191209081110 52 117 4.0 7.0 0.00 0.64 0.00 71 1008.9
20191209080612 52 121 2.0 5.0 0.00 0.64 0.00 71 1008.8
20191209080108 52 119 3.0 7.0 0.00 0.64 0.00 71 1009.1
20191209074612 52 113 2.0 5.0 0.00 0.64 0.00 71 1009.0
20191209074114 52 125 7.0 8.0 0.00 0.64 0.00 71 1009.2
20191209073606 51 131 6.0 9.0 0.00 0.64 0.00 71 1009.3
20191209073107 52 149 5.0 8.0 0.00 0.64 0.00 71 1009.3
20191209071608 52 126 7.0 8.0 0.00 0.64 0.00 70 1009.1
20191209071111 52 156 2.0 7.0 0.00 0.64 0.00 70 1008.9
20191209070612 52 133 4.0 7.0 0.00 0.64 0.00 71 1009.2
20191209070108 52 124 3.0 7.0 0.00 0.64 0.00 71 1009.3
20191209064611 52 164 2.0 3.0 0.00 0.64 0.00 70 1008.9
20191209064113 52 123 2.0 5.0 0.00 0.64 0.00 70 1008.5
20191209063606 52 97 1.0 2.0 0.00 0.64 0.00 70 1008.4
20191209063108 52 53 1.0 3.0 0.00 0.64 0.00 70 1008.4
20191209061609 51 79 4.0 6.0 0.00 0.64 0.00 70 1008.9
20191209061109 51 82 5.0 8.0 0.00 0.64 0.00 71 1008.7
20191209060613 51 116 2.0 3.0 0.00 0.64 0.00 72 1009.0
20191209060106 51 135 2.0 3.0 0.00 0.64 0.00 72 1008.8
20191209054606 51 117 1.0 2.0 0.00 0.64 0.00 72 1008.7
20191209054108 51 135 1.0 6.0 0.00 0.64 0.00 72 1009.3
20191209053610 51 217 3.0 6.0 0.00 0.64 0.00 71 1009.0
20191209053116 50 198 2.0 3.0 0.00 0.64 0.00 73 1009.1
20191209051610 50 88 2.0 2.0 0.00 0.64 0.00 74 1008.8
20191209051113 50 41 1.0 2.0 0.00 0.64 0.00 75 1009.0
20191209050614 50 114 1.0 1.0 0.00 0.64 0.00 75 1009.1
20191209050108 49 79 1.0 2.0 0.00 0.64 0.00 75 1008.7
20191209044607 49 75 1.0 1.0 0.00 0.64 0.00 77 1008.9
20191209044107 49 89 3.0 7.0 0.00 0.64 0.00 77 1008.8
20191209043611 49 62 2.0 2.0 0.00 0.64 0.00 78 1008.6
20191209043111 49 31 2.0 3.0 0.00 0.64 0.00 78 1008.7
20191209041610 49 63 2.0 2.0 0.00 0.64 0.00 79 1008.0
20191209041108 49 63 1.0 2.0 0.00 0.64 0.00 80 1008.5
20191209040608 49 105 1.0 3.0 0.00 0.64 0.00 80 1008.9
20191209040112 49 79 2.0 3.0 0.00 0.64 0.00 81 1008.2
20191209034606 49 29 1.0 2.0 0.00 0.64 0.00 81 1008.9
20191209034111 49 90 1.0 2.0 0.00 0.64 0.00 81 1008.7
20191209033606 49 35 3.0 5.0 0.00 0.64 0.00 82 1008.9
20191209033108 49 30 3.0 5.0 0.00 0.64 0.00 82 1008.1
20191209031612 49 48 3.0 5.0 0.00 0.64 0.00 82 1008.7
20191209031113 49 32 3.0 5.0 0.00 0.64 0.00 81 1008.9
20191209030606 49 39 3.0 5.0 0.00 0.64 0.00 81 1008.7
20191209030106 48 47 3.0 7.0 0.00 0.64 0.00 81 1008.8
20191209024613 48 35 3.0 5.0 0.00 0.64 0.00 80 1008.8
20191209024114 48 19 5.0 7.0 0.00 0.64 0.00 80 1008.7
20191209023606 48 35 5.0 7.0 0.00 0.64 0.00 80 1008.6
20191209023106 48 32 5.0 7.0 0.00 0.64 0.00 80 1008.1
20191209021615 49 39 3.0 5.0 0.00 0.64 0.00 79 1008.5
20191209021105 49 41 3.0 5.0 0.00 0.64 0.00 78 1008.2
20191209020606 49 32 3.0 5.0 0.00 0.64 0.00 79 1008.3
20191209020106 49 37 3.0 5.0 0.00 0.64 0.00 78 1008.5
20191209014612 49 43 3.0 5.0 0.00 0.64 0.00 78 1008.8
20191209014105 49 36 2.0 3.0 0.00 0.64 0.00 79 1008.5